Theta_e
307 308 308 309 311 313 314 314 316 316 317 318 319 320 320 320 320 321 321 321 321 321 321 321 319 319 320 321 323 324 323 325 325 327 327 327 327 328 328 329 330 334 335 337
308 308 308 308 309 311 312 313 314 314 315 316 319 319 319 319 319 319 319 320 320 320 320 320 319 320 320 320 322 324 323 323 324 324 327 327 328 328 329 330 332 336 337 338
309 309 307 308 309 310 311 313 313 314 314 315 316 318 319 319 318 318 318 318 319 319 320 319 319 320 321 322 322 323 322 322 324 325 325 327 328 328 330 331 334 337 339 338
307 308 307 308 308 309 311 311 312 313 315 317 316 319 319 319 319 319 318 318 318 318 319 318 318 319 320 321 321 321 321 321 322 325 326 327 327 328 329 332 335 339 340 338
309 308 306 307 307 308 309 310 311 311 312 314 315 316 317 318 318 318 319 317 317 317 318 318 318 317 317 317 317 318 320 321 323 326 327 327 328 329 333 335 338 340 339 340
310 309 308 308 307 307 308 309 310 311 312 314 314 315 317 316 318 317 318 316 317 317 317 316 317 318 319 320 321 321 322 323 323 326 327 328 330 333 336 338 341 341 339 336
310 311 310 309 307 307 307 309 310 311 313 314 313 314 316 317 316 316 317 317 317 318 317 318 318 318 319 320 321 321 324 325 325 328 330 334 338 338 340 341 341 340 336 333
314 313 308 309 309 308 308 308 310 309 311 312 312 314 315 316 316 316 316 317 318 318 319 320 317 318 320 322 326 328 327 328 331 335 339 341 341 341 341 341 339 335 332 331
312 311 310 311 311 309 309 308 309 310 311 312 312 313 313 314 315 316 317 319 322 323 324 321 319 319 326 331 333 336 337 339 341 342 342 342 341 341 340 338 333 331 331 332
310 312 310 310 310 311 310 310 309 309 310 311 312 312 314 315 315 317 319 322 324 332 326 330 328 328 336 339 340 341 341 342 343 343 342 341 340 339 334 331 332 332 332 331
310 310 309 309 310 310 311 311 310 310 310 312 314 315 316 317 316 317 317 320 329 333 331 335 340 341 341 342 342 343 343 343 343 342 341 340 337 333 332 332 332 331 330 327
309 311 310 308 308 309 309 309 312 313 311 310 311 313 315 316 315 316 315 316 324 333 333 334 341 342 343 342 343 343 342 341 340 338 335 333 332 332 332 332 331 329 328 325
309 310 310 308 311 310 310 310 311 313 312 313 312 312 314 314 315 315 315 315 318 333 334 334 340 341 340 340 342 341 340 338 335 333 332 332 331 329 329 329 328 328 325 324
309 309 309 310 309 309 310 310 310 311 314 313 313 313 313 313 315 315 314 316 319 333 334 335 336 340 338 339 338 337 335 333 332 331 329 325 327 327 328 327 326 325 325 326
309 310 309 309 309 309 309 310 310 310 311 313 313 313 313 314 315 314 315 316 318 329 335 335 335 337 337 338 336 334 333 332 329 324 325 327 328 328 328 326 326 326 326 325
309 311 309 308 308 308 308 308 309 310 310 311 311 312 313 313 313 314 314 315 317 326 334 336 335 338 338 337 335 334 332 328 324 327 327 327 328 329 328 326 326 325 325 325
310 311 310 309 307 308 309 309 309 309 310 311 311 311 311 313 314 315 317 320 320 327 335 337 337 338 337 336 334 333 330 324 326 327 327 327 328 329 327 325 324 325 325 324
310 310 309 309 309 308 307 310 311 313 314 315 312 311 312 312 313 314 316 319 323 331 335 338 338 337 336 335 334 333 325 326 329 330 329 328 329 328 326 325 325 325 324 324
307 309 310 309 309 308 309 313 314 314 314 315 312 312 313 312 313 319 318 323 330 334 336 338 337 336 335 334 333 330 327 330 331 332 331 329 327 327 326 325 325 325 325 324
307 308 309 309 309 310 313 312 309 311 316 315 314 314 313 313 322 321 325 332 333 335 336 337 336 334 333 333 331 327 329 331 331 333 332 328 327 325 325 325 326 326 325 325
312 310 309 308 311 312 311 309 308 316 318 315 318 319 320 320 321 324 327 332 334 335 336 336 335 333 332 330 330 328 330 330 332 332 330 328 327 325 326 325 325 325 326 326
312 313 312 312 312 313 305 306 312 312 308 309 311 319 320 320 321 322 325 332 333 333 335 335 335 333 332 330 327 330 328 331 329 330 330 328 326 325 326 326 326 327 328 328
313 308 310 310 312 307 305 301 302 304 305 308 311 320 321 323 323 324 328 330 331 331 333 335 334 331 331 328 326 329 329 329 329 329 328 327 327 326 327 327 327 328 328 328
309 306 306 307 309 308 309 307 311 315 312 316 317 318 319 321 323 325 326 329 330 330 332 333 334 331 326 324 325 326 328 329 329 328 328 326 327 327 328 328 328 328 328 328
311 310 310 309 309 308 309 308 311 312 313 312 315 315 317 321 323 324 326 327 328 330 331 333 333 333 331 328 325 326 327 328 329 329 328 328 328 328 328 328 328 328 328 328
310 310 310 311 310 310 310 310 308 311 312 311 311 313 313 315 320 323 325 328 329 330 331 332 332 333 333 333 331 327 326 327 328 328 328 329 329 328 329 327 328 328 328 328
Wind_Speed
2 8 16 18 19 20 16 9 21 18 10 21 25 28 24 24 30 32 33 33 34 36 34 34 44 41 37 32 27 26 23 22 22 22 24 26 27 29 31 31 31 26 20 16
5 15 14 12 13 17 21 20 12 9 10 7 15 21 18 17 20 27 30 32 34 35 34 35 40 37 35 34 30 26 24 23 26 26 24 23 24 27 27 28 25 17 15 16
15 15 7 10 16 18 17 22 21 11 10 14 14 23 23 21 23 28 33 35 35 35 35 38 40 35 30 28 27 25 26 24 23 26 26 23 23 23 23 24 21 17 16 15
13 13 12 15 12 18 18 10 13 19 15 13 4 12 13 12 17 17 23 28 32 33 33 43 42 38 33 27 27 26 28 28 28 26 26 24 23 22 21 16 15 15 15 16
19 14 10 15 13 12 17 15 11 6 9 12 20 12 19 14 22 19 18 26 31 34 36 34 35 38 36 36 35 32 29 28 26 21 21 20 20 19 15 13 15 18 17 15
22 25 14 16 13 9 10 16 17 15 11 14 18 11 23 18 21 20 23 28 25 26 24 29 28 24 21 20 19 21 23 25 23 19 16 17 15 13 14 18 21 20 18 18
13 16 11 18 16 11 9 11 9 11 13 18 6 13 23 3 9 12 9 16 22 20 18 19 20 20 18 18 19 21 19 17 16 15 15 14 12 11 16 21 23 21 17 19
4 4 3 12 20 18 14 15 9 16 14 19 13 12 8 9 10 13 16 19 18 19 17 19 18 16 16 16 14 10 12 14 17 18 18 16 15 17 20 22 20 15 20 17
5 2 6 5 6 13 13 10 19 6 4 11 12 19 17 16 16 10 12 13 20 20 21 15 12 14 10 8 12 16 19 21 22 21 20 20 19 20 19 18 18 19 16 14
2 6 2 7 9 4 8 5 10 9 6 8 9 18 9 7 7 3 12 18 25 25 13 4 9 11 14 18 21 22 21 22 22 22 22 22 21 20 19 19 18 16 14 12
6 3 3 5 6 7 9 7 6 7 11 3 3 3 2 6 11 11 14 22 24 21 5 5 11 18 21 22 23 23 23 24 24 24 24 23 22 20 18 16 15 14 12 10
4 3 5 10 8 7 7 4 9 8 17 10 8 5 4 12 10 15 19 24 29 15 5 3 14 22 23 24 24 24 25 25 24 24 24 22 19 18 17 16 13 12 11 11
3 1 6 7 4 4 1 3 2 5 6 12 12 6 9 7 19 21 25 29 27 15 5 5 14 18 21 23 25 25 26 26 25 24 22 20 18 15 14 13 12 12 14 15
5 6 10 9 8 8 10 10 8 5 8 13 16 23 26 20 19 22 30 25 25 13 3 6 11 13 17 22 25 27 28 26 24 22 20 18 17 16 13 12 13 16 16 15
4 9 11 14 15 14 17 19 17 14 14 11 13 24 23 17 19 22 26 24 24 14 6 10 12 14 16 20 24 26 27 25 22 20 20 19 16 13 11 12 16 17 17 12
7 7 10 12 16 17 20 20 20 19 18 18 20 29 20 26 29 24 29 26 24 16 10 13 14 15 19 21 22 25 25 23 23 22 19 16 14 11 12 13 16 16 15 10
4 4 5 11 8 9 13 22 24 19 17 16 20 24 22 20 18 19 23 22 26 19 11 15 18 18 20 22 22 22 23 23 23 19 16 14 13 12 13 12 18 19 13 10
5 9 6 3 2 7 6 1 6 13 16 17 20 24 21 22 25 27 27 30 29 14 12 18 18 19 21 22 22 21 23 23 19 14 12 10 11 12 16 17 20 16 11 8
12 5 3 3 7 12 16 3 6 4 10 10 17 22 17 22 22 30 26 26 18 12 13 19 19 21 22 23 23 24 22 18 15 12 10 10 10 15 16 18 16 13 10 9
9 12 5 5 5 5 4 5 7 8 10 13 18 15 16 17 10 12 18 10 7 10 15 19 20 21 23 23 26 24 21 17 14 11 9 11 10 14 14 16 14 13 10 9
2 3 11 9 5 7 3 8 8 4 2 15 7 7 8 9 13 16 15 7 7 11 16 19 22 22 23 26 25 23 20 18 12 9 12 11 11 14 13 13 14 10 8 8
3 3 2 5 6 6 8 10 5 6 23 16 20 10 13 18 24 26 21 9 9 13 18 21 22 23 25 25 24 22 23 16 12 10 12 12 13 15 12 10 10 7 6 7
2 2 2 3 3 7 16 16 33 35 28 32 20 12 14 16 19 16 16 19 10 9 19 21 23 24 25 25 25 24 21 17 14 12 12 14 14 13 11 7 7 5 6 7
4 6 3 3 3 12 17 25 27 5 10 1 6 4 1 3 5 4 6 12 19 10 19 22 24 27 27 25 25 22 20 16 15 13 14 15 14 12 9 7 4 4 5 6
4 6 5 5 7 13 8 23 25 20 23 18 13 16 14 6 4 2 3 9 15 8 18 20 23 27 27 26 24 23 20 17 16 15 14 13 12 10 8 7 6 7 9 7
7 4 3 2 14 7 11 20 24 21 24 21 18 19 17 12 6 5 5 6 5 5 5 14 22 24 26 27 25 23 20 18 18 17 15 13 11 9 7 7 10 11 11 10
Wind_Direction
215 247 231 234 232 241 259 313 256 252 226 225 228 245 244 246 253 259 263 264 266 267 274 275 279 279 279 275 270 268 283 287 292 282 269 256 250 249 248 247 252 255 257 250
210 249 260 261 248 240 245 252 260 273 259 245 246 256 257 253 253 258 263 266 266 272 274 275 279 282 277 269 260 266 277 291 289 283 275 260 250 251 249 245 249 249 240 227
247 257 262 249 242 241 237 241 242 254 287 275 274 271 259 253 252 257 260 263 267 267 271 277 280 276 277 272 258 262 280 286 281 272 265 254 247 250 246 244 242 230 220 204
249 254 241 246 245 236 240 229 233 234 243 249 213 271 254 245 255 246 257 258 260 263 263 269 270 272 271 272 271 272 275 278 280 269 252 245 245 244 246 250 233 208 197 192
268 270 248 238 238 223 241 229 248 262 256 258 253 269 265 247 261 258 258 260 258 258 259 264 266 271 270 269 270 271 268 268 266 262 242 236 235 236 235 223 196 186 181 178
268 260 247 244 250 233 246 212 218 240 250 246 243 239 275 253 261 265 255 264 266 270 267 267 276 278 269 261 258 257 256 254 253 243 228 222 225 219 205 187 177 171 169 168
302 249 240 226 250 241 229 215 190 211 217 238 238 213 242 157 309 283 271 285 290 287 281 273 271 273 261 256 258 259 246 237 225 208 198 187 180 177 183 174 170 165 170 169
290 335 202 215 220 229 224 213 215 213 212 236 207 231 245 260 255 291 279 284 295 297 293 296 270 266 250 254 249 215 193 180 172 165 163 155 154 154 164 164 163 159 160 162
303 308 318 279 288 224 210 210 226 297 244 224 200 243 267 268 268 283 320 321 325 315 308 287 248 232 231 190 151 153 151 152 151 153 151 146 142 151 153 154 149 147 151 164
221 292 259 305 350 294 241 218 189 215 223 207 212 233 235 186 246 355 358 346 337 330 311 235 193 183 157 147 147 146 147 147 147 147 145 143 146 149 149 150 151 154 163 177
299 241 290 288 179 227 298 254 210 247 237 280 270 164 214 120 67 28 358 358 347 343 348 171 157 150 149 147 146 144 145 145 142 143 143 145 146 147 150 154 157 163 173 185
331 307 289 283 289 263 266 290 238 244 225 240 284 272 125 105 38 360 351 349 354 349 346 169 154 152 150 146 146 146 145 142 142 143 143 143 145 149 152 157 165 173 177 171
343 274 308 302 195 109 132 263 270 290 267 253 244 247 156 284 329 337 336 338 344 345 337 169 155 154 149 146 147 146 144 144 144 143 144 143 145 150 157 166 174 174 165 154
270 248 252 259 302 319 297 285 267 260 259 247 237 266 268 296 320 325 327 336 342 335 280 180 161 153 153 148 147 145 143 145 143 142 141 137 133 138 146 153 158 157 154 149
253 254 246 260 274 276 275 275 272 259 250 254 261 257 269 288 307 316 315 322 327 322 243 193 178 157 154 151 149 148 147 146 142 138 138 139 137 136 144 149 154 155 154 148
218 237 217 250 258 264 270 267 263 260 258 253 253 263 273 284 288 296 301 306 313 319 235 197 184 168 161 158 155 151 149 148 143 141 145 149 147 145 153 157 162 157 154 149
231 203 215 256 268 280 273 251 246 254 251 243 244 254 260 269 277 284 294 300 301 302 228 193 182 176 167 161 159 157 154 153 153 154 160 165 170 161 161 165 164 157 149 156
209 202 230 276 309 253 275 215 281 265 268 263 237 245 250 253 267 283 287 285 288 274 211 192 180 172 168 163 162 161 161 159 161 165 174 179 170 165 158 150 154 154 154 165
206 207 236 235 226 279 285 39 335 353 286 267 224 238 244 258 281 285 278 275 262 240 198 189 177 169 167 167 167 166 169 166 167 172 180 171 158 160 165 163 167 165 166 176
219 210 213 213 246 262 39 120 12 327 273 226 226 238 242 251 258 271 294 258 241 191 185 176 168 166 169 169 171 173 177 174 177 179 174 162 151 156 162 171 174 170 172 187
162 181 223 231 261 271 66 342 326 248 15 325 309 263 242 235 238 265 310 270 185 186 176 171 166 165 169 171 175 178 180 183 181 180 169 159 151 155 160 165 173 175 189 199
301 304 220 218 236 267 22 330 237 330 311 303 300 269 252 254 262 263 266 230 176 179 168 170 162 166 172 173 175 179 182 181 182 176 159 155 153 163 166 170 180 192 205 210
299 270 288 253 294 297 292 256 263 262 265 280 285 271 261 256 261 262 239 211 179 170 170 166 163 165 170 174 178 181 183 185 188 164 148 155 159 169 172 168 170 187 203 198
240 210 242 301 264 289 301 336 343 51 207 11 53 48 335 265 273 274 219 197 199 185 172 163 173 170 168 172 176 177 183 184 179 163 154 159 168 177 181 182 171 159 172 169
280 307 279 253 278 319 310 347 356 18 50 37 49 45 33 26 8 337 138 147 180 187 161 168 181 182 177 178 180 183 190 189 183 169 160 162 172 182 184 180 159 137 130 124
340 331 323 330 307 307 327 344 360 12 35 26 40 40 38 39 42 44 68 116 139 106 120 186 196 188 188 189 186 187 194 188 185 180 172 172 179 185 183 167 149 137 127 117